Location: Newark
(38.0892°N, 27.7378°E)
Time: 05:55:46
(UTC+00:00)

N. Korean satellite - Pass Details

Date: 11 December 2019
Orbit: 454 x 508 km, 97.2° (Epoch: 20 January)

Event Time Altitude Azimuth Distance (km) Brightness Sun altitude
Rises 04:36:00 0° 358° (N) 2,535 10.0 -7.7°
Reaches altitude 10° 04:38:17 10° 346° (NNW) 1,642 8.9 -7.3°
Maximum altitude 04:41:16 26° 288° (WNW) 950 7.5 -6.7°
Drops below altitude 10° 04:44:12 10° 230° (SW) 1,609 9.0 -6.2°
Sets 04:46:25 0° 217° (SW) 2,471 10.0 -5.8°
